#timestamp,LO_Frequency,Hit,StdDev 
1512136815.6,286047000.0,N
1512136835.4,286047001.2,N
1512136855.2,286046998.0,N
1512136875.1,286046994.0,N
1512136876.0,286046994.0,N
1512136895.8,286046992.4,N
1512136915.6,286046992.5,N
1512136935.5,286046988.5,N
1512136955.3,286046987.5,N
1512136975.1,286046987.8,N
1512136995.9,286046983.7,N
1512137015.7,286046984.6,N
1512137035.5,286046986.8,N
1512137055.3,286046981.1,N
1512137075.2,286046979.9,N
1512137095.0,286046979.2,N
1512137095.9,286046979.2,N
1512137115.7,286046980.1,N
1512137135.6,286046979.7,N
1512137155.4,286046978.0,N
1512137175.2,286046977.5,N
1512137195.1,286046979.7,N
1512137196.0,286046979.7,N
1512137215.8,286046979.2,N
1512137235.6,286046978.4,N
1512137255.5,286046975.9,N
1512137275.3,286046974.7,N
1512137295.1,286046975.7,N
1512137315.9,286046975.8,N
1512137335.7,286046976.1,N
1512137355.5,286046977.6,N
1512137375.4,286046981.1,N
1512137395.2,286046985.1,N
1512137415.0,286046985.3,N
1512137415.9,286046985.3,N
1512137435.8,286046987.7,N
1512137455.6,286046987.8,N
1512137475.4,286046991.0,N
1512137495.2,286046988.9,N
1512137515.1,286046991.2,N
1512137516.0,286046991.2,N
1512137535.8,286046990.5,N
1512137555.6,286046992.9,N
1512137575.5,286046991.2,N
1512137595.3,286046991.2,N
1512137615.1,286046989.4,N
1512137635.9,286046987.3,N
1512137655.7,286046990.5,N
1512137675.5,286046992.4,N
1512137695.4,286046993.1,N
1512137715.2,286046994.5,N
1512137735.0,286046992.1,N
1512137735.9,286046992.1,N
1512137755.8,286046991.3,N
1512137775.6,286046989.1,N
1512137795.4,286046988.5,N
1512137815.3,286046988.9,N
1512137835.1,286046989.0,N
1512137836.0,286046989.0,N
1512137855.8,286046987.0,Y
1512137875.7,286047002.7,P
1512137895.5,286046999.8,N
1512137915.3,286046999.0,N
1512137935.1,286047000.6,N
1512137955.9,286047001.3,N
1512137975.7,286047002.5,N
1512137995.5,286047004.0,N
1512138015.4,286047001.9,N
1512138035.2,286047004.4,N
1512138055.0,286047002.3,N
1512138055.9,286047002.3,N
1512138075.8,286047004.4,N
1512138095.6,286047003.1,N
1512138115.4,286047003.4,N
1512138135.3,286047005.9,N
1512138155.1,286047005.0,N
1512138156.0,286047005.0,N
1512138175.8,286047007.4,N
1512138195.7,286047007.3,N
1512138215.5,286047009.2,N
1512138235.3,286047009.3,N
1512138255.1,286047012.1,N
1512138275.9,286047013.5,Y
1512138295.7,286047010.0,P
1512138315.5,286047013.8,P
1512138335.4,286047013.1,P
1512138355.2,286047015.2,Y
1512138375.0,286047004.5,P
1512138376.0,286047004.5,N
1512138395.8,286047007.2,N
1512138415.6,286047007.6,Y
1512138435.5,286046999.0,P
1512138455.3,286047001.2,N
1512138475.1,286046998.6,N
1512138495.8,286046999.9,N
1512138515.7,286046998.5,N
1512138535.5,286047001.2,N
1512138555.3,286046998.7,N
1512138575.2,286046996.5,N
1512138595.9,286047000.5,N
1512138615.7,286047001.1,N
1512138635.6,286047001.0,N
1512138655.4,286046997.7,N
1512138675.2,286046996.8,N
1512138695.1,286046999.5,N
1512138696.0,286046999.5,N
1512138715.8,286046996.7,N
1512138735.6,286046997.0,N
1512138755.5,286046999.1,N
1512138775.3,286047000.1,N
1512138795.1,286046998.7,N
1512138815.8,286046997.6,N
1512138835.7,286046996.8,N
1512138855.5,286046997.1,N
1512138875.3,286046996.6,N
1512138895.2,286046997.1,N
1512138915.9,286046996.1,N
1512138935.7,286046995.6,N
1512138955.6,286046992.1,Y
1512138975.4,286046993.7,P
1512138995.2,286046995.3,N
1512139015.1,286046997.1,N
1512139016.0,286046997.1,N
1512139035.8,286046997.7,N
1512139055.6,286046995.2,N
1512139075.5,286046994.2,Y
1512139095.3,286046998.8,P
1512139115.1,286047000.8,N
1512139135.9,286047002.8,N
1512139155.7,286047004.4,N
1512139175.5,286047000.0,N
1512139195.4,286047001.1,N
1512139215.2,286046998.3,N
1512139235.0,286046999.6,N
1512139235.9,286046999.6,N
1512139255.7,286046997.9,N
1512139275.6,286046996.9,N
1512139295.4,286046998.1,N
1512139315.2,286047001.2,N
1512139335.1,286047001.3,N
1512139336.0,286047001.3,N
1512139355.8,286047003.1,N
1512139375.6,286047001.7,N
1512139395.5,286047001.8,N
1512139415.3,286047005.2,N
1512139435.1,286047003.6,N
1512139455.9,286047002.6,N
1512139475.7,286047004.1,N
1512139495.5,286047005.0,N
1512139515.4,286047008.8,Y
1512139535.2,286047008.7,P
1512139555.0,286047007.1,N
1512139555.9,286047007.1,N
1512139575.8,286047002.9,N
1512139595.6,286047005.7,N
1512139615.4,286047003.2,N
1512139635.2,286047002.2,N
1512139655.1,286047000.7,N
1512139656.0,286047000.7,N
1512139675.8,286047002.5,N
1512139695.6,286047002.0,N
1512139715.5,286047002.0,N
1512139735.3,286046999.8,N
1512139755.1,286047002.7,N
1512139775.9,286047000.2,N
1512139795.7,286047002.7,N
1512139815.5,286047002.2,N
1512139835.4,286047000.1,N
1512139855.2,286046999.7,N
1512139875.0,286047003.7,N
1512139875.9,286047003.7,N
1512139895.8,286047001.8,N
1512139915.6,286047000.1,N
1512139935.4,286046999.3,N
1512139955.2,286046998.4,N
1512139975.1,286046998.3,N
1512139976.0,286046998.3,N
1512139995.8,286046996.9,N
1512140015.6,286046992.7,N
1512140035.5,286046994.6,N
1512140055.3,286046996.3,N
1512140075.1,286046993.4,N
1512140095.9,286046993.7,N
1512140115.7,286046995.5,N
1512140135.5,286046995.9,N
1512140155.4,286046993.6,N
1512140175.2,286046993.0,N
1512140195.0,286046993.1,N
1512140195.9,286046993.1,N
1512140215.8,286046994.2,N
1512140235.6,286046995.1,N
1512140255.4,286046993.4,N
1512140275.3,286046991.4,N
1512140295.1,286046991.4,N
1512140296.0,286046991.4,N
1512140315.8,286046991.6,N
1512140335.7,286046988.7,Y
1512140355.5,286046992.6,P
1512140375.3,286046995.8,N
1512140395.2,286046997.5,N
